Regional Weather Roundup
Issued by NWS

Home | Current Version | Previous Version | Text Only | Print | Product List | Glossary Off
Versions: 1 2 3 4 5 6 7 8 9 10 11 12 13 14 15 16 17 18 19 20 21 22 23 24 25 26 27 28 29 30 31 32 33 34 35 36 37 38 39 40 41 42 43 44 45 46 47 48 49 50

000
ASUS44 KMEG 010610
RWRTN
TENNESSEE HOURLY STATE WEATHER ROUNDUP
NATIONAL WEATHER SERVICE MEMPHIS TN
100 AM CDT SUN MAY 01 2016

TNZ002-004-019-021-049-052-054-088>092-010700-
WEST TENNESSEE

CITY           SKY/WX    TMP DP  RH WIND       PRES   REMARKS
MEMPHIS INTL   CLEAR     67  64  90 S6        29.86S
NWS MEMPHIS      N/A     65 N/A N/A MISG        N/A
JACKSON        CLEAR     65  63  93 S6        29.87F
DYERSBURG      CLEAR     64  63  94 S6          N/A
UNION CITY     CLEAR     63  63 100 CALM      29.86R
LEXINGTON      MOCLDY    64  64 100 SE3       29.88F
$$

TNZ008-025-027-028-033-062-065-066-010700-
NORTH MIDDLE TENNESSEE

CITY           SKY/WX    TMP DP  RH WIND       PRES   REMARKS
NASHVILLE      CLOUDY    66  64  93 CALM      29.91S FOG
CLARKSVILLE    FOG       62  61  96 CALM      29.89R VSB 1/4
SMYRNA         CLOUDY    65  65 100 S3        29.92R FOG
COOKEVILLE     PTCLDY    66  64  94 VRB7      29.92S
CROSSVILLE     CLOUDY    68  61  78 VRB7      29.97F
$$

TNZ061-075-076-078-094-096-097-010700-
SOUTH MIDDLE TENNESSEE

CITY           SKY/WX    TMP DP  RH WIND       PRES   REMARKS
FAYETTEVILLE   MOCLDY    68  66  94 S5        29.93S
TULLAHOMA      PTCLDY    64  64 100 SE7       29.94S
WINCHESTER     MOCLDY    66  64  94 SE3       29.95R
MCMINNVILLE    PTCLDY    66  66 100 CALM      29.93S
COLUMBIA       MOCLDY   N/A N/A N/A CALM      29.90S
SHELBYVILLE    PTCLDY    66  66 100 CALM      29.93S
$$

TNZ017-018-042-046-047-010700-
NORTHEAST TENNESSEE

CITY           SKY/WX    TMP DP  RH WIND       PRES   REMARKS
TRI CITIES     CLOUDY    62  60  93 CALM      30.02F
$$

TNZ012-013-036-069-073-074-010700-
CENTRAL EAST TENNESSEE

CITY           SKY/WX    TMP DP  RH WIND       PRES   REMARKS
KNOXVILLE      CLOUDY    63  62  97 N5        29.96S
OAK RIDGE      LGT RAIN  64  62  93 VRB3      29.98S
GATLINBURG     CLEAR     61  61 100 CALM      29.97S
MORRISTOWN     CLOUDY    63  63 100 CALM      29.97F
$$

TNZ083-085-099-010700-
SOUTHEAST TENNESSEE

CITY           SKY/WX    TMP DP  RH WIND       PRES   REMARKS
CHATTANOOGA    CLOUDY    67  64  90 N5        29.96F
$$

SKY/WX REPORTED AS FAIR MEANS FEW OR NO CLOUDS BELOW
12 THOUSAND FEET.





USA.gov is the U.S. government's official web portal to all federal, state and local government web resources and services.